Wind_Speed
60 61 61 63 64 64 64 64 64 65 65 66 66 66 66 65 65 64 63 62 61 59 58 57 56 55 54 52 51 51 49 48 47 46 46 46 45 44 43 43 42 41 41 40 39 39 38 38 37 37 36 36 35 35 35 34 34 33 33 33 33 33 33 34 36 37 36 35 35 35 35 36 36 36 36 37 36 36 36 37 38 39 39 38 37
61 62 63 64 64 64 63 64 64 65 66 66 66 66 65 64 63 62 61 59 58 56 55 54 53 52 51 49 48 47 46 45 44 43 43 43 42 42 41 40 40 39 39 38 37 37 36 36 35 35 34 33 33 32 32 32 31 30 29 29 30 30 30 31 32 33 33 32 31 31 32 32 32 32 33 34 35 35 35 34 34 36 37 38 38
62 63 64 64 63 63 63 64 65 65 66 66 65 64 64 63 61 59 58 56 55 53 52 51 50 49 48 47 45 44 43 42 41 41 41 41 40 40 40 39 39 38 37 37 36 35 34 34 33 32 31 30 29 29 29 28 28 27 26 26 26 26 26 27 28 29 30 29 28 29 29 29 29 30 30 32 33 33 33 33 32 32 33 35 36
63 63 63 62 62 62 63 64 65 65 65 65 64 63 62 60 58 57 55 53 51 50 48 47 46 46 45 44 43 41 40 39 38 38 38 38 38 38 37 37 36 36 35 34 34 33 32 31 30 29 28 28 27 26 26 26 25 25 25 25 25 25 25 25 26 27 28 29 28 28 28 28 28 29 29 30 31 31 32 32 31 31 31 32 33
63 62 60 60 61 63 64 64 64 64 64 63 62 61 59 57 55 53 51 49 47 46 45 44 43 42 42 41 41 40 38 37 36 36 36 36 36 35 35 34 34 33 32 32 31 31 30 30 29 29 28 27 26 25 25 25 25 25 25 25 25 25 25 25 25 26 27 29 29 28 29 29 29 29 29 30 30 30 30 30 30 30 30 30 31
61 59 60 61 63 64 64 64 64 63 62 61 59 57 55 53 51 49 48 46 44 43 42 41 40 40 39 39 39 38 38 36 35 35 34 34 34 33 32 32 31 31 31 30 30 30 30 30 29 29 28 27 27 26 26 25 25 25 25 25 25 25 25 26 26 27 27 28 29 29 29 30 30 30 29 30 31 31 31 31 30 30 30 29 29
59 60 61 63 64 64 64 63 62 61 59 57 56 53 51 50 48 46 45 43 42 41 40 39 39 38 38 38 37 37 36 36 34 33 33 32 32 31 30 30 30 30 30 30 30 30 30 30 29 29 29 28 28 27 27 27 26 26 26 26 26 26 26 26 27 27 28 28 29 29 30 30 31 31 30 30 31 31 31 31 31 30 29 29 29
59 61 62 63 63 63 62 61 59 58 56 54 52 50 49 47 46 44 43 42 41 39 38 38 38 37 37 36 36 36 35 35 34 33 32 32 32 31 31 30 30 29 30 30 30 30 30 29 29 29 29 29 29 29 30 30 29 28 28 28 28 28 28 28 28 28 28 29 29 30 30 30 31 31 31 31 31 30 30 30 31 30 29 28 28
60 61 62 62 61 60 59 58 56 55 53 51 49 48 46 45 44 42 41 40 39 39 38 37 36 36 35 35 35 34 34 34 35 34 33 32 32 32 32 31 31 30 29 29 29 30 30 30 30 30 30 30 30 30 31 31 32 31 30 30 30 30 29 29 29 29 29 29 29 30 30 30 30 30 30 29 29 29 28 28 28 29 28 27 27
61 61 60 59 58 57 56 55 53 52 50 48 47 46 44 43 42 41 40 39 38 38 37 36 35 35 34 34 34 34 33 33 34 34 34 33 33 33 32 32 32 31 30 29 29 29 29 30 30 29 30 30 29 29 30 30 31 31 31 31 31 31 31 30 30 29 29 29 29 29 29 29 28 28 28 26 26 26 26 25 25 25 26 25 23
60 59 58 57 56 54 53 52 50 49 48 46 45 44 43 42 41 40 39 38 37 37 36 35 35 34 34 34 33 33 33 33 33 33 34 34 33 33 33 32 32 31 31 30 29 29 28 28 29 28 29 28 28 28 28 28 28 29 29 30 31 31 31 30 30 29 29 28 28 27 27 27 26 26 25 24 22 22 21 22 23 22 23 23 21
57 56 55 54 53 52 50 49 48 47 46 45 44 43 42 41 39 38 38 37 36 36 35 35 35 34 34 34 33 33 33 33 33 33 33 33 34 33 33 33 32 32 32 31 30 29 29 28 28 28 28 28 27 27 26 26 26 27 27 27 28 28 29 29 29 29 28 27 26 26 25 25 25 24 23 21 19 18 17 17 19 20 21 21 21
54 53 52 51 50 49 48 47 46 45 45 44 43 42 41 40 38 38 37 36 36 35 35 35 34 34 34 33 33 33 33 33 33 33 32 32 33 33 33 33 33 33 32 32 31 30 30 29 29 28 28 27 26 26 25 24 24 23 24 24 25 25 25 26 26 27 27 26 25 24 24 24 24 23 21 19 16 15 14 14 15 17 18 19 20
51 50 49 48 47 46 46 45 45 44 43 42 42 41 40 39 38 38 37 36 35 35 34 34 34 34 34 34 34 34 34 34 33 33 33 32 32 32 32 32 32 32 32 32 32 31 31 30 30 29 28 27 25 24 23 22 21 20 21 21 22 22 22 22 22 23 23 24 24 23 22 22 23 22 19 16 15 14 14 14 14 15 16 17 19
49 48 47 46 45 44 44 44 43 43 42 41 40 39 39 39 38 37 37 36 35 35 34 34 33 34 34 35 35 35 35 35 34 34 34 33 32 32 32 32 32 33 33 33 32 32 31 30 29 28 27 26 25 23 22 21 20 19 19 20 20 21 21 21 21 21 21 22 23 22 21 20 21 20 17 15 14 15 16 17 17 16 16 17 17
46 45 44 44 43 43 42 42 41 41 40 39 39 38 38 37 37 37 36 36 35 35 34 33 34 34 35 36 36 36 36 36 36 35 35 34 33 33 33 33 33 33 33 32 31 30 29 28 27 26 25 24 23 22 21 20 20 20 20 20 19 20 20 20 21 21 21 22 22 21 21 19 19 20 19 17 17 17 18 18 18 18 18 18 17
43 43 42 42 41 41 40 40 39 39 38 38 37 36 36 35 35 36 36 35 35 34 34 34 34 35 35 36 36 36 36 36 36 36 35 34 34 34 33 33 32 31 31 30 29 28 28 27 26 25 25 24 23 22 21 20 20 20 20 20 19 18 19 19 19 20 19 20 19 19 19 18 18 18 19 19 18 17 17 17 17 17 18 18 17
41 40 40 40 39 39 39 38 38 37 36 36 35 35 34 35 35 35 35 35 35 34 34 34 35 35 35 35 36 36 36 36 36 35 35 34 34 33 32 31 30 29 28 28 27 27 27 27 26 25 25 24 23 23 22 21 20 19 19 18 18 18 17 16 16 16 17 17 17 17 17 17 17 17 17 17 17 16 16 15 15 16 16 17 16
39 38 38 38 38 37 37 36 36 35 34 33 33 34 34 34 34 34 34 34 34 34 34 34 35 35 35 35 35 36 36 36 35 35 35 35 34 33 32 31 29 28 27 27 27 26 26 26 26 25 25 24 24 23 22 21 20 19 18 17 17 17 16 15 14 15 15 16 16 16 16 16 16 16 16 16 16 15 15 15 14 14 14 15 15
37 37 37 36 36 36 35 35 34 33 32 32 32 33 33 33 33 33 33 33 34 34 34 34 34 34 34 35 34 34 35 35 35 36 36 35 34 34 32 31 30 29 28 27 26 26 26 25 25 24 23 23 23 22 22 21 20 19 18 18 17 17 16 16 16 16 16 16 16 17 17 17 17 17 17 17 17 17 16 16 15 14 14 14 15
36 36 35 35 35 34 34 33 32 31 31 32 32 32 32 32 32 32 32 32 33 33 33 34 34 34 33 34 34 34 35 35 36 36 36 35 35 34 33 32 31 31 30 28 27 26 25 24 23 22 21 21 21 21 21 21 20 20 20 19 19 19 19 19 19 19 19 18 18 18 19 19 19 19 19 18 18 17 17 16 15 15 14 14 14
35 34 34 34 33 33 32 31 31 31 31 32 32 32 32 31 31 31 31 31 31 32 32 32 32 32 32 32 33 34 34 35 35 35 35 35 35 34 34 33 32 31 30 29 27 25 24 23 22 22 21 22 22 22 21 22 21 21 21 21 21 21 21 21 21 21 20 20 19 19 20 19 19 18 18 17 15 14 14 15 15 16 15 14 13
34 33 33 33 32 32 31 31 31 31 31 31 32 32 31 31 31 30 30 30 30 30 30 30 30 30 31 31 32 33 34 34 35 35 34 34 34 34 33 32 32 31 30 29 27 25 25 24 24 24 24 23 23 23 23 23 23 22 22 22 22 22 22 22 22 21 20 20 19 19 18 18 17 17 16 15 15 14 13 14 15 16 17 16 15
33 33 33 33 32 31 31 31 31 31 31 32 32 32 31 31 30 30 30 30 30 29 29 29 30 30 30 30 31 32 33 33 34 33 33 33 33 33 33 32 32 31 30 29 29 28 28 28 28 28 27 26 26 25 25 25 24 24 24 24 25 25 24 23 22 21 21 20 20 19 18 18 18 17 17 18 18 17 17 17 17 18 18 18 17
32 33 32 32 31 32 32 32 31 31 32 32 31 31 30 30 30 30 30 30 30 29 30 30 30 30 30 30 30 31 32 32 32 32 32 32 32 33 33 32 32 32 31 31 32 32 32 31 30 30 29 29 28 27 27 27 26 26 26 26 25 25 24 24 23 23 22 22 21 20 20 20 20 20 20 20 20 20 20 21 21 20 20 19 18
31 31 31 31 32 32 32 32 32 32 32 32 31 30 30 30 31 31 31 30 30 30 30 30 30 30 30 30 30 30 30 31 31 31 31 31 32 32 33 33 33 33 33 34 35 35 35 34 33 32 31 31 30 29 29 29 29 28 27 27 26 26 26 26 26 26 25 24 24 23 23 23 22 22 22 22 21 20 20 21 21 21 21 21 20
30 30 30 31 32 31 31 32 33 33 32 31 31 31 31 31 31 31 30 30 30 29 29 29 29 29 30 30 30 30 30 30 30 30 30 31 32 32 33 33 33 34 35 36 38 38 37 36 34 34 33 32 31 31 31 30 30 30 29 29 29 29 29 29 28 28 27 27 26 26 25 25 24 23 23 22 21 21 21 21 21 21 21 21 22
29 29 30 31 31 31 31 32 32 32 32 31 31 31 31 31 30 30 30 30 30 30 29 29 29 29 29 30 30 30 30 30 30 31 32 33 33 33 33 34 34 35 36 38 38 37 36 35 34 33 33 33 32 32 32 32 32 31 31 31 31 30 30 30 29 28 28 27 27 27 26 26 25 24 23 23 22 22 22 22 22 22 22 22 23
28 29 30 30 31 31 32 32 32 31 31 31 31 31 31 31 31 30 30 30 30 30 30 29 29 30 30 31 31 31 32 32 33 34 34 34 34 34 34 35 36 36 37 37 36 34 33 32 32 32 32 32 32 32 32 32 32 31 31 31 31 30 30 29 29 29 28 28 27 27 26 26 26 26 25 25 25 25 24 24 24 23 24 24 24
28 29 29 29 30 31 32 32 32 32 31 31 31 31 31 31 31 31 31 31 31 30 30 30 31 32 32 33 33 34 34 34 34 34 34 34 34 34 35 36 36 36 36 36 34 33 32 31 31 31 31 31 31 32 32 32 32 32 31 31 31 31 30 30 30 30 29 29 29 28 27 27 26 27 27 27 27 27 27 26 26 26 25 25 25
27 27 28 28 30 31 32 32 32 32 32 32 31 31 31 31 32 32 31 31 31 31 31 31 31 32 33 33 34 34 35 34 33 33 33 33 33 34 34 35 35 35 35 34 33 32 31 31 32 32 32 32 32 33 33 33 33 33 32 32 32 32 32 32 32 31 31 31 31 30 29 29 28 28 28 28 28 27 27 27 27 28 28 28 28
26 26 27 28 30 31 32 32 33 33 33 33 33 33 32 32 32 32 32 32 32 32 32 32 32 32 32 32 33 33 33 33 32 32 32 32 33 33 34 35 35 34 33 32 31 31 31 32 32 33 33 34 34 34 34 34 34 34 34 33 33 33 34 34 33 33 32 32 31 31 31 30 30 29 29 28 28 27 27 27 28 28 28 29 29
26 27 28 29 30 32 32 33 33 33 34 34 34 34 34 34 33 33 33 33 33 33 33 33 33 32 32 32 32 33 33 32 32 32 32 32 32 33 34 34 34 33 32 32 31 32 32 33 34 34 34 35 35 35 35 35 35 35 35 35 35 35 35 34 33 33 33 33 32 32 31 31 31 30 30 30 29 28 27 27 27 28 28 28 28
27 28 29 31 32 33 33 34 34 34 35 35 35 36 35 35 35 35 34 34 34 34 33 33 32 32 32 32 32 31 31 31 31 32 33 33 33 34 34 34 33 32 32 32 32 33 33 34 34 34 34 34 34 34 34 35 35 35 35 35 36 35 35 34 33 33 33 33 32 32 32 32 32 32 32 31 31 30 30 29 28 28 28 28 28
29 30 31 33 34 34 34 34 35 35 35 35 35 35 35 34 34 33 33 33 33 33 33 32 32 32 32 31 31 31 31 31 31 32 33 33 33 33 33 32 31 31 31 32 32 33 33 33 33 33 34 34 34 34 35 35 35 35 35 35 35 35 35 34 34 34 33 33 32 32 32 32 32 33 33 33 32 32 32 32 31 30 30 29 28
31 32 33 34 34 34 34 34 34 33 33 33 33 33 33 33 32 32 32 32 33 33 33 33 33 33 33 32 32 32 31 31 32 32 32 32 32 31 31 30 30 31 31 31 32 32 32 32 33 33 33 34 34 34 35 35 35 35 35 35 35 35 35 35 35 35 34 33 33 32 31 32 32 33 33 33 33 33 33 33 33 33 32 31 30
32 32 33 33 33 32 32 32 32 32 32 32 32 32 32 32 32 32 32 33 33 34 34 34 34 34 33 33 33 32 32 32 32 32 32 32 31 31 31 31 31 31 31 32 32 32 32 33 33 34 34 34 34 34 34 34 34 35 35 35 36 36 36 35 35 35 35 34 33 33 32 32 32 33 33 33 34 34 34 34 34 34 33 33 32
31 31 31 31 31 31 31 31 31 31 32 32 32 32 32 32 32 32 33 33 33 34 34 33 33 33 32 32 32 33 32 32 32 32 31 31 31 31 31 31 32 32 32 33 33 33 34 34 34 34 34 34 34 34 34 34 34 35 35 35 36 35 35 34 34 34 35 34 34 33 33 33 33 33 34 34 34 34 34 34 34 33 33 32 32
28 29 29 29 29 29 29 30 30 31 31 32 32 32 32 32 32 32 32 33 33 32 32 32 31 31 31 31 31 30 30 30 30 30 30 30 31 31 32 32 32 33 33 33 34 34 34 34 34 34 34 34 34 34 34 35 35 35 35 36 35 35 34 34 33 34 34 34 33 33 33 33 33 34 34 34 34 34 34 34 33 33 32 31 31
27 27 27 27 28 28 28 29 29 30 30 31 31 31 31 31 31 31 32 32 32 31 31 30 30 30 30 29 29 29 29 29 29 30 30 30 31 31 32 32 32 32 32 33 33 33 33 34 34 34 34 34 34 34 34 34 35 35 35 35 35 34 34 34 33 33 34 33 32 32 31 31 32 32 32 33 33 33 33 32 32 31 31 30 30
25 26 26 26 26 26 27 27 28 29 29 29 29 29 29 30 30 30 30 31 31 30 30 30 30 30 30 29 29 29 30 30 30 30 30 30 31 31 31 31 31 31 31 31 32 32 32 32 32 32 33 33 33 33 33 33 33 33 33 33 32 32 32 32 32 32 32 32 31 30 30 30 30 30 30 30 30 30 30 30 29 29 29 28 28
24 24 24 24 25 25 25 26 26 27 27 27 28 28 28 28 28 29 29 29 29 29 30 30 30 30 30 30 30 30 30 30 30 30 30 30 30 30 30 30 30 30 30 30 30 30 30 30 30 30 31 31 31 31 31 31 31 31 31 31 31 31 31 32 32 32 32 31 30 30 29 29 29 29 29 29 29 28 28 28 28 28 27 26 26
23 23 23 23 23 24 24 24 25 25 25 26 26 26 26 27 27 27 28 28 28 28 28 28 28 28 28 28 28 29 29 29 29 29 29 29 29 29 29 29 29 28 29 29 29 29 29 29 29 29 29 30 30 29 29 29 29 30 30 31 31 31 31 31 31 31 31 31 30 30 29 29 29 28 28 27 27 27 26 26 26 26 26 26 25
21 21 21 21 22 22 23 23 23 24 24 24 24 24 24 25 25 25 26 26 26 26 26 26 27 27 27 27 27 27 27 27 27 27 27 27 27 27 27 27 27 27 27 27 27 27 28 29 29 29 29 29 29 29 29 29 28 29 29 29 30 30 31 31 31 30 30 30 29 29 29 29 29 28 28 27 27 26 25 25 24 24 24 24 24
20 20 20 20 20 21 21 22 22 22 23 23 23 23 23 23 23 23 23 24 24 24 24 24 24 25 25 25 25 25 25 25 25 25 25 25 25 25 25 24 25 25 25 25 26 26 27 27 28 29 29 29 29 29 29 29 29 29 29 29 29 29 29 30 30 29 29 29 29 28 28 28 28 28 28 27 27 26 25 25 24 22 22 21 22
18 18 18 18 19 19 20 20 21 21 22 22 22 21 21 21 21 21 21 21 21 22 22 22 22 22 22 22 23 23 23 23 23 23 23 23 23 23 23 23 23 24 24 24 25 26 26 27 27 28 28 29 29 29 29 29 29 29 29 29 28 28 28 28 28 28 28 28 28 27 27 27 28 28 28 28 27 27 26 25 24 23 22 21 20
16 16 16 17 17 18 18 19 20 20 21 21 21 20 20 20 20 20 20 20 20 20 20 20 20 20 20 20 21 21 21 21 21 21 21 22 22 22 22 23 23 24 24 25 25 26 26 26 27 27 28 28 28 29 29 29 29 29 28 28 28 27 27 27 27 27 27 28 28 28 28 28 28 29 28 28 28 27 26 25 24 23 22 21 21
14 14 14 14 15 16 17 18 18 19 19 19 19 19 19 19 19 19 19 19 19 19 19 19 19 19 19 19 20 20 20 20 20 21 21 21 22 22 22 23 23 24 25 25 26 26 26 26 27 27 27 27 28 28 28 28 28 28 28 27 27 27 27 27 27 27 28 29 29 29 29 29 29 29 29 29 29 28 27 26 25 24 23 22 22
12 12 12 13 13 14 15 16 17 18 18 18 18 18 18 18 18 18 18 18 18 18 18 19 19 19 20 20 20 20 21 21 21 22 22 22 22 23 23 23 24 24 25 25 26 26 27 27 27 27 28 28 28 28 28 28 28 28 27 27 27 27 27 28 28 28 28 28 29 30 30 30 29 29 29 29 29 29 28 27 26 24 23 23 22
9 9 10 11 12 13 14 15 16 17 17 17 17 18 18 18 18 17 17 17 17 17 17 18 18 19 19 20 20 21 21 22 22 23 23 23 24 24 24 25 25 25 26 26 26 27 27 27 28 28 28 28 28 28 28 28 27 27 27 26 26 26 27 27 27 28 28 28 29 30 30 30 30 30 29 29 29 29 29 28 27 25 24 24 24
8 8 8 10 11 12 13 14 15 16 16 16 17 17 17 17 17 17 17 17 17 17 18 18 18 19 19 20 20 21 21 22 23 23 24 24 24 25 25 25 26 26 27 27 27 28 28 28 28 27 27 27 27 27 28 28 28 27 27 27 26 26 27 27 28 28 29 30 30 30 30 30 30 30 30 29 29 28 28 28 27 26 26 25 25
Wind_Direction
321 321 321 321 320 320 320 320 320 320 320 320 320 320 320 319 319 318 318 317 317 316 315 315 315 315 315 314 314 314 315 315 316 315 314 313 313 313 313 313 313 313 312 312 312 311 310 310 309 309 308 307 306 305 303 303 301 301 300 299 298 297 296 295 294 293 292 293 293 292 291 290 289 289 287 284 283 281 280 279 279 278 277 275 274
321 320 320 319 319 320 320 320 320 321 321 321 321 321 320 320 320 319 319 319 318 318 318 318 318 317 317 317 317 318 318 319 318 318 317 316 316 316 316 316 316 315 315 315 314 314 313 313 312 312 312 311 310 309 308 307 306 305 304 303 301 300 300 299 299 298 297 297 297 296 294 293 293 291 289 287 285 284 283 282 280 279 278 277 275
320 319 319 319 320 320 320 321 321 321 322 322 322 322 321 321 321 321 321 321 321 321 321 321 320 320 320 320 320 320 321 321 321 321 319 319 319 319 319 319 318 318 317 317 317 317 317 317 316 316 316 315 315 314 313 313 312 311 310 309 307 305 305 304 303 302 301 301 302 300 298 298 297 295 294 292 290 289 288 286 285 282 280 278 276
318 318 319 319 320 320 321 322 322 323 323 323 323 323 323 323 323 323 324 324 324 323 323 323 323 322 322 322 322 322 323 324 324 323 322 321 321 321 321 321 321 321 320 320 321 321 321 321 321 321 321 320 320 319 319 318 317 316 314 313 312 310 309 308 307 306 304 304 305 304 303 303 301 300 299 297 296 295 294 292 291 288 285 282 279
318 319 319 320 321 322 322 323 324 324 324 324 324 324 324 325 325 326 326 326 325 326 326 326 326 325 325 325 325 325 326 327 326 325 324 324 325 325 325 325 325 325 325 325 325 325 325 325 325 325 324 324 323 322 321 320 318 317 316 314 313 312 311 310 308 306 305 305 306 306 305 304 303 302 302 300 299 298 297 296 295 293 290 287 283
319 320 321 322 322 323 324 325 325 325 325 325 326 326 327 328 328 328 328 328 329 329 329 329 329 328 328 328 328 329 329 329 329 329 328 328 328 328 329 329 329 329 329 329 329 329 328 328 327 327 326 325 324 323 321 319 318 316 315 315 314 313 311 309 307 306 305 305 305 305 304 303 302 301 301 300 300 299 298 297 296 295 293 290 288
321 322 322 323 324 325 325 326 326 326 327 328 329 329 330 330 330 330 331 331 332 332 332 332 332 331 332 332 332 332 332 332 333 333 332 331 331 332 333 333 333 333 332 331 331 330 329 328 327 326 325 324 323 322 319 317 316 316 316 315 313 311 309 308 307 306 305 304 304 303 302 302 301 300 300 300 300 300 299 297 296 296 295 293 290
322 323 324 324 325 326 327 327 328 329 330 331 331 331 332 332 333 333 333 333 334 334 334 334 334 335 335 335 335 336 336 336 336 336 335 335 335 335 335 335 335 335 334 332 331 330 328 327 326 325 324 323 322 322 320 319 318 318 317 315 313 311 309 308 307 306 305 304 303 302 301 301 300 300 301 301 301 301 301 299 297 296 295 294 292
323 324 325 326 328 328 329 330 331 332 332 333 333 333 334 334 334 334 335 335 335 336 336 336 337 337 338 338 339 339 339 338 337 337 338 338 337 337 336 335 335 334 334 333 331 329 328 327 326 325 324 323 324 323 322 321 321 320 319 317 315 314 313 312 310 308 307 305 303 303 302 302 303 303 304 305 305 305 303 301 300 298 296 295 294
325 326 328 329 330 331 331 332 333 333 334 334 335 335 336 336 336 336 337 337 337 337 337 338 338 339 340 341 342 341 341 340 339 339 339 339 338 336 336 335 334 334 333 333 332 330 328 327 326 325 324 324 325 324 322 322 321 320 319 318 317 317 316 314 313 311 309 308 307 307 306 307 308 308 308 310 311 309 307 304 302 300 298 297 295
327 329 330 331 332 332 334 334 335 335 336 336 337 337 337 337 338 338 338 338 338 338 338 339 340 341 342 343 343 342 341 341 341 341 339 339 338 337 336 335 335 335 334 334 334 332 330 328 327 327 326 325 326 324 323 322 321 320 320 319 318 317 316 315 314 314 313 312 312 313 313 313 313 313 313 316 315 311 309 307 304 303 301 299 296
330 331 332 333 334 335 336 336 337 337 338 338 338 339 339 340 340 340 339 339 339 339 340 341 342 343 343 344 343 343 343 343 343 342 341 339 338 337 337 336 336 336 336 335 335 334 333 331 331 330 328 327 327 326 325 325 324 322 321 319 317 317 317 317 317 318 318 317 317 319 319 318 317 317 318 320 318 313 309 307 304 303 302 301 297
332 333 334 335 337 338 338 338 339 339 339 340 340 341 342 342 342 341 341 341 341 341 341 342 343 344 344 344 344 344 345 345 344 344 343 341 340 339 339 338 337 337 336 336 336 335 335 335 333 332 330 330 330 329 329 329 328 325 323 321 319 319 320 321 322 322 322 321 322 323 324 323 320 321 326 326 322 319 314 308 305 304 303 302 300
334 335 337 339 340 340 340 340 341 341 341 342 343 344 344 344 343 343 343 343 342 342 343 344 344 344 344 345 346 347 347 346 346 346 345 344 343 342 341 340 339 338 338 338 338 338 337 336 335 334 333 334 334 334 334 334 332 329 328 326 325 325 326 327 326 325 324 324 325 328 329 328 325 327 335 337 332 330 327 321 317 313 309 306 304
337 339 341 342 342 342 343 343 343 343 344 344 345 346 346 345 345 344 344 344 344 345 345 346 346 346 347 348 349 349 348 348 348 349 348 347 346 345 344 343 342 342 342 341 340 339 339 338 339 339 339 339 340 339 339 339 338 337 337 336 335 334 334 333 331 330 330 329 330 333 334 333 332 335 342 347 344 340 337 333 329 324 318 313 310
340 343 344 344 345 345 345 345 345 345 346 347 348 348 348 347 346 346 346 346 347 348 348 348 348 349 350 351 350 350 350 350 351 350 350 349 348 347 348 347 347 346 346 345 343 342 343 344 345 345 345 346 346 346 346 347 347 347 346 345 344 341 340 338 337 336 336 335 335 337 339 340 340 342 346 349 350 345 340 335 330 326 322 319 316
344 346 346 347 347 347 347 347 347 348 349 350 350 350 350 349 348 348 348 349 349 350 350 351 352 353 353 353 352 352 352 352 352 352 351 351 352 353 353 353 352 351 349 349 348 347 348 349 350 351 351 352 353 354 355 356 355 354 352 350 349 348 346 344 342 340 338 339 340 341 344 347 347 347 348 348 348 345 340 335 329 326 323 320 318
348 348 349 350 350 349 349 350 350 352 352 352 352 353 352 352 351 351 351 351 352 353 354 356 356 357 357 356 355 355 355 355 355 356 358 359 359 359 358 357 357 355 353 353 353 353 353 354 355 356 356 358 359 359 0 1 0 359 357 355 354 356 355 352 348 345 345 346 348 350 352 354 354 354 353 352 350 347 343 340 338 334 330 326 323
350 351 353 353 352 352 353 354 355 356 356 356 356 355 354 354 354 354 355 355 356 357 359 0 1 360 359 359 359 359 359 360 1 2 3 3 2 2 2 2 2 2 2 1 1 0 0 360 360 0 0 1 1 2 2 4 4 5 4 4 4 4 4 2 360 359 358 359 360 0 1 2 3 2 2 360 358 355 354 353 351 346 339 333 331
353 356 357 356 356 357 358 360 -0 -0 0 0 359 357 357 358 358 358 359 359 0 2 3 4 3 3 3 4 4 4 4 4 4 5 5 5 5 6 7 7 8 9 10 10 9 8 7 6 5 5 4 3 3 5 6 8 10 12 13 13 13 13 14 15 14 13 14 14 14 11 11 13 13 11 9 7 4 3 3 2 359 355 350 345 342
358 -0 1 1 2 3 3 4 5 4 3 2 1 1 2 3 3 3 4 5 5 6 6 6 6 7 8 8 7 6 6 6 7 8 8 8 9 10 12 13 14 15 15 16 15 14 13 11 11 10 9 9 10 12 13 15 16 18 19 19 20 21 22 22 22 23 23 22 20 17 17 16 13 10 10 8 5 4 3 2 0 1 2 359 355
2 4 5 7 8 7 7 8 8 7 6 5 6 7 8 8 8 8 9 10 9 9 9 10 11 12 12 10 9 8 9 10 11 11 11 12 13 15 16 18 19 19 20 21 21 21 21 20 20 20 20 21 21 21 21 22 23 24 24 23 24 25 26 26 26 26 26 24 23 20 18 15 11 9 8 6 6 8 7 4 4 7 10 11 9
5 7 9 11 12 11 11 12 11 10 10 10 12 13 13 13 13 13 13 14 14 14 15 16 17 16 14 12 12 12 13 14 15 15 15 15 17 19 21 22 23 25 26 27 29 32 32 31 30 31 31 31 30 30 29 30 29 29 28 28 29 29 29 29 28 27 25 25 24 22 21 19 17 15 13 14 18 22 22 17 13 12 14 16 17
7 9 11 13 14 15 14 14 15 15 15 16 16 17 17 17 16 16 18 20 20 20 20 19 19 18 18 18 18 18 18 18 18 18 18 19 21 23 25 27 28 29 31 34 37 40 40 38 36 36 36 36 36 35 35 35 34 33 32 32 32 32 31 30 30 29 28 27 27 26 27 28 27 26 24 24 25 26 27 26 23 22 21 19 18
10 12 13 14 16 17 16 16 19 20 21 21 21 20 20 20 20 22 23 24 24 22 21 21 21 22 23 24 23 23 22 22 22 22 23 24 25 27 29 30 31 32 35 38 41 42 42 41 40 39 39 39 39 39 39 38 37 37 36 35 35 34 34 34 33 33 32 32 32 32 32 32 31 30 30 29 27 25 24 23 23 22 23 22 20
13 14 14 15 18 20 19 19 21 24 25 24 23 24 24 24 25 26 26 25 25 24 24 24 25 27 28 28 28 28 27 27 27 27 27 28 29 30 32 33 34 35 36 39 41 42 41 41 41 41 41 40 40 40 40 39 39 39 39 38 38 38 38 38 37 37 36 36 35 35 35 34 33 31 30 28 27 25 24 23 20 19 19 20 20
15 15 16 17 19 22 24 24 24 25 26 26 26 26 27 27 27 27 27 27 28 29 30 30 30 30 31 32 32 32 31 31 31 32 32 33 34 34 35 37 37 37 38 39 39 39 38 38 39 39 39 39 39 39 40 40 40 40 40 40 40 39 39 38 38 37 36 36 35 34 34 34 33 33 31 29 28 27 26 25 23 21 20 18 18
16 17 18 19 20 23 27 29 29 27 27 27 28 28 29 29 30 31 31 32 32 33 34 34 34 34 34 35 36 36 35 34 34 36 37 37 37 38 39 40 41 40 41 41 40 38 36 36 36 37 37 38 39 39 40 40 40 40 40 39 38 38 37 36 36 36 36 35 35 34 33 33 32 33 33 32 32 32 30 28 25 23 21 20 18
18 19 20 21 22 24 27 30 32 32 30 30 30 31 32 32 33 33 35 35 36 36 36 35 36 36 37 38 39 39 38 37 36 37 38 39 40 40 42 43 43 42 42 42 41 40 39 38 38 38 39 40 40 40 40 40 40 39 39 38 37 37 37 36 36 37 37 37 37 37 36 34 33 33 33 34 34 34 33 31 28 26 24 22 21
22 23 23 24 26 28 30 31 33 35 36 35 34 34 35 36 36 37 37 37 38 38 38 38 37 37 38 38 39 39 39 39 39 39 39 40 41 42 43 43 43 43 43 42 41 41 41 41 42 42 42 42 42 41 41 40 40 40 39 39 39 39 38 39 39 38 38 38 38 39 38 38 37 36 35 35 35 34 33 32 31 31 31 31 30
27 27 28 29 31 33 34 35 35 37 39 41 42 41 40 39 40 41 40 40 40 41 41 41 41 40 39 39 39 39 40 41 41 42 42 42 42 43 44 44 43 43 43 42 41 41 41 41 41 41 41 41 41 41 41 41 40 40 40 40 40 40 41 41 41 41 41 40 40 40 40 40 40 39 38 37 36 34 34 33 33 33 34 35 37
34 34 35 36 38 39 40 40 41 41 42 45 47 48 48 46 46 46 46 46 45 45 45 45 44 44 43 42 42 42 42 42 43 44 44 44 44 43 43 43 43 42 42 41 40 40 40 40 40 40 40 40 41 41 41 41 41 41 42 42 42 42 42 42 42 42 42 43 42 42 42 42 42 41 41 40 39 37 36 35 35 35 36 37 39
42 43 43 44 45 46 47 47 48 49 49 50 51 53 54 54 54 53 52 51 50 49 48 48 47 46 46 45 44 43 42 42 43 44 45 45 45 44 44 43 42 41 40 40 39 40 40 40 40 41 41 42 42 42 42 42 42 42 43 43 43 43 42 42 42 42 42 42 42 43 43 43 43 43 43 43 42 42 41 40 39 38 38 40 41
51 51 52 53 54 55 55 56 57 57 58 58 58 58 58 57 57 55 54 53 51 50 49 48 48 47 46 45 45 44 43 42 42 43 43 43 43 43 42 41 40 40 40 40 40 40 41 42 42 43 43 44 44 44 44 44 44 44 43 43 43 43 42 42 42 42 41 41 41 41 42 42 42 43 43 43 43 43 44 44 43 43 42 43 43
60 60 61 62 62 63 63 63 63 62 62 61 61 60 59 58 57 55 53 52 51 49 49 48 48 48 47 47 46 45 44 43 43 43 42 42 41 41 41 40 40 41 41 41 42 42 43 43 44 44 44 45 45 46 46 46 46 45 45 44 43 43 42 42 42 41 41 41 40 40 40 40 40 40 41 41 41 42 42 43 43 44 44 45 46
67 67 68 67 67 66 66 64 63 62 61 60 59 58 56 55 53 52 50 49 49 48 48 48 48 48 47 47 46 46 45 45 44 44 44 43 43 43 43 43 43 43 43 44 44 44 44 44 44 45 45 46 46 46 46 45 45 44 43 42 42 41 40 40 40 39 39 39 39 39 39 39 39 38 38 38 38 39 39 39 40 40 42 43 45
70 70 69 68 67 66 64 63 61 59 58 56 55 53 51 50 49 48 47 47 47 47 47 46 46 45 45 45 45 45 45 45 45 45 44 44 45 45 45 45 45 45 45 45 44 44 44 44 44 44 45 45 45 45 44 43 42 41 40 38 38 37 37 36 36 36 36 36 36 37 38 38 38 37 37 36 36 36 36 36 36 36 37 38 41
71 70 68 67 65 63 61 59 58 56 55 54 52 51 50 49 48 48 48 48 48 48 47 46 46 45 44 44 43 43 43 44 44 44 45 45 45 45 45 45 45 44 44 43 43 43 43 43 43 43 43 43 42 41 40 39 38 36 35 34 34 33 33 34 34 34 34 34 34 34 35 35 35 35 34 33 33 33 33 33 33 33 34 35 36
70 68 67 65 63 61 59 57 56 55 54 53 53 52 51 51 50 50 50 50 49 49 49 48 47 47 46 45 45 45 45 45 45 45 45 45 45 44 44 44 43 43 43 42 42 42 41 41 41 40 40 39 37 36 34 33 32 31 30 29 30 31 32 32 33 33 33 34 33 33 33 32 32 31 30 30 30 30 29 29 29 29 30 32 33
69 68 66 64 63 61 59 58 57 56 56 55 55 54 53 53 52 52 51 51 51 51 50 50 50 49 49 49 48 48 48 47 47 46 45 45 44 44 43 43 43 43 42 42 41 40 39 38 37 36 35 33 32 31 30 29 28 27 26 26 27 29 30 31 31 32 32 32 32 32 31 31 30 29 28 28 27 27 27 27 26 26 26 27 29
70 68 67 65 64 62 61 60 59 59 58 58 57 56 55 55 54 53 53 53 52 52 51 51 51 50 50 50 50 49 49 48 47 46 46 45 44 44 43 43 43 42 41 40 40 38 37 36 35 33 31 30 28 27 26 26 26 26 27 28 28 29 29 29 29 29 30 30 30 30 29 28 28 27 27 27 26 25 25 25 25 25 24 23 23
72 71 69 67 66 64 63 62 61 60 59 58 57 56 56 55 55 55 54 53 53 52 52 51 50 50 49 49 48 48 47 47 46 45 45 44 44 43 42 42 41 40 39 38 37 36 35 33 32 30 29 28 27 26 26 26 27 28 29 29 29 28 27 26 25 25 26 26 27 26 26 25 24 24 24 24 23 23 23 22 23 23 23 22 21
75 73 71 69 68 66 64 62 61 59 58 57 56 55 54 54 53 53 53 52 52 51 50 50 49 49 48 47 46 46 45 44 44 43 42 42 41 41 40 39 38 37 35 34 32 31 30 29 28 27 27 26 26 27 27 28 28 29 29 29 28 26 25 24 23 23 23 22 22 21 21 21 21 21 21 20 20 20 20 20 19 19 19 19 20
77 75 73 70 68 66 63 61 60 58 56 55 54 53 52 51 51 50 50 50 49 48 48 47 46 45 45 44 44 43 42 42 41 40 39 38 37 36 35 34 33 32 31 29 28 26 24 23 23 23 23 24 25 26 26 27 27 27 26 26 25 24 23 22 22 21 20 19 18 17 17 17 17 17 17 17 17 17 17 17 17 17 16 17 18
78 75 72 69 66 64 61 59 57 55 54 53 52 50 49 48 47 47 46 46 45 45 44 43 42 41 41 40 39 39 38 37 37 36 34 33 32 31 29 28 27 26 24 23 21 20 19 18 18 18 19 20 21 21 22 22 23 22 22 21 20 20 19 18 18 17 16 15 15 14 13 13 13 14 14 13 13 12 12 12 13 14 15 16 17
78 74 71 67 64 61 59 56 54 53 51 50 48 47 45 44 42 42 41 40 40 39 38 38 37 37 36 35 35 34 33 32 31 30 29 27 26 24 22 21 20 18 17 16 15 14 14 14 14 14 14 15 16 16 17 17 17 17 17 16 15 14 13 12 11 10 10 9 9 8 8 8 9 10 10 10 10 10 9 8 9 10 12 15 17
78 73 69 65 62 59 56 54 51 50 48 47 46 44 43 41 39 38 36 35 34 33 32 31 31 30 29 29 28 27 27 26 24 23 21 20 18 17 15 13 12 10 10 9 8 8 8 8 9 9 10 10 11 12 12 12 12 12 12 11 9 8 6 6 5 4 3 3 3 3 3 4 5 5 6 6 7 8 8 8 7 7 8 11 14
78 72 68 63 59 55 52 49 47 45 44 42 42 41 39 38 36 34 32 30 28 27 25 25 24 23 22 21 20 20 19 18 17 16 14 13 11 10 8 7 6 4 3 3 3 3 3 4 4 5 5 5 6 6 6 6 6 6 6 5 3 1 0 0 1 0 360 359 359 360 0 1 2 3 3 3 4 5 6 7 7 7 6 8 10
77 71 64 58 54 50 47 44 42 40 38 37 37 36 35 34 32 30 27 25 23 21 19 18 16 16 15 14 13 13 12 11 10 10 9 7 6 5 4 2 1 0 360 359 359 359 359 359 360 0 0 1 1 1 1 1 1 0 0 360 358 357 356 356 357 357 357 356 355 355 356 357 358 359 0 1 1 2 2 3 4 5 5 5 6
75 67 59 52 48 44 41 38 36 34 33 33 32 30 29 28 26 24 23 21 19 17 16 14 12 11 10 8 7 7 6 6 6 5 4 3 3 2 1 0 359 358 358 357 357 357 357 357 357 357 356 356 356 356 356 356 356 356 355 355 354 353 352 352 351 351 351 351 351 352 352 353 354 355 357 358 358 358 358 359 360 1 2 2 3
72 62 53 47 42 38 35 32 30 29 27 26 25 24 22 21 19 18 17 16 15 14 13 11 10 9 7 6 5 4 3 3 2 2 1 0 359 358 358 357 356 356 355 354 354 354 354 354 353 353 353 352 352 351 351 351 350 350 350 349 349 348 348 347 347 346 347 347 348 348 349 350 350 351 352 353 354 353 354 354 355 356 357 358 359
Height
3027 3022 3016 3011 3006 3000 2995 2990 2985 2980 2976 2971 2965 2960 2955 2950 2945 2940 2934 2929 2925 2920 2914 2910 2905 2900 2896 2891 2887 2883 2879 2875 2872 2868 2863 2859 2856 2853 2850 2847 2843 2840 2837 2834 2831 2828 2825 2823 2820 2817 2814 2812 2810 2807 2805 2803 2801 2799 2797 2795 2793 2790 2788 2786 2783 2782 2781 2780 2779 2778 2776 2774 2773 2772 2771 2770 2769 2769 2768 2767 2767 2766 2765 2765 2766
3022 3016 3011 3005 3000 2995 2990 2985 2980 2975 2970 2965 2960 2955 2949 2944 2939 2934 2929 2923 2918 2914 2908 2903 2899 2894 2890 2886 2882 2878 2875 2871 2867 2863 2859 2855 2852 2848 2845 2843 2839 2836 2833 2830 2827 2824 2821 2819 2816 2813 2811 2808 2806 2804 2801 2799 2797 2795 2793 2791 2789 2787 2784 2782 2780 2778 2777 2775 2774 2773 2772 2770 2768 2767 2766 2764 2763 2763 2763 2762 2762 2761 2760 2759 2759
3016 3011 3006 3000 2995 2990 2985 2980 2975 2970 2965 2960 2954 2949 2943 2938 2933 2928 2923 2918 2912 2908 2903 2898 2894 2889 2885 2881 2878 2875 2871 2868 2864 2859 2855 2851 2848 2845 2841 2839 2835 2832 2830 2827 2824 2821 2818 2815 2813 2810 2808 2805 2803 2801 2798 2796 2794 2792 2790 2788 2785 2784 2782 2779 2777 2774 2773 2771 2770 2769 2767 2766 2764 2763 2761 2760 2759 2758 2757 2757 2757 2756 2755 2754 2754
3012 3006 3001 2995 2991 2986 2980 2975 2970 2965 2960 2954 2949 2943 2938 2933 2927 2922 2917 2912 2908 2903 2899 2894 2890 2885 2881 2877 2874 2871 2868 2865 2861 2856 2852 2848 2845 2842 2838 2835 2832 2829 2826 2823 2820 2818 2815 2812 2810 2808 2805 2803 2800 2798 2796 2793 2791 2789 2787 2785 2783 2781 2779 2777 2774 2772 2770 2768 2767 2765 2764 2762 2761 2759 2758 2756 2755 2753 2752 2751 2751 2750 2750 2749 2749
3007 3001 2996 2991 2986 2981 2976 2971 2965 2960 2954 2949 2944 2938 2933 2928 2923 2918 2913 2908 2904 2899 2895 2891 2887 2882 2878 2874 2871 2868 2865 2862 2858 2854 2850 2846 2843 2839 2836 2833 2830 2827 2824 2821 2818 2815 2812 2810 2807 2805 2803 2800 2798 2796 2794 2791 2789 2787 2785 2782 2781 2779 2777 2774 2772 2770 2767 2765 2764 2762 2761 2759 2757 2756 2754 2752 2751 2750 2748 2747 2746 2745 2744 2744 2744
3002 2997 2992 2987 2982 2976 2971 2966 2960 2955 2949 2944 2939 2933 2928 2923 2918 2913 2909 2904 2900 2896 2891 2888 2884 2880 2875 2872 2868 2865 2862 2859 2856 2852 2848 2844 2841 2838 2835 2831 2828 2825 2822 2818 2816 2813 2810 2807 2805 2802 2800 2798 2795 2793 2791 2789 2787 2784 2782 2780 2778 2776 2774 2772 2769 2767 2765 2763 2761 2759 2758 2756 2754 2753 2751 2749 2748 2746 2744 2743 2742 2741 2740 2739 2739
2998 2993 2987 2982 2977 2971 2966 2960 2955 2950 2944 2939 2933 2928 2924 2919 2914 2909 2905 2901 2897 2893 2889 2885 2881 2877 2873 2869 2866 2862 2859 2856 2853 2850 2846 2843 2839 2836 2833 2830 2826 2823 2820 2817 2814 2811 2808 2805 2803 2800 2797 2795 2793 2790 2788 2786 2784 2782 2780 2778 2775 2773 2771 2769 2767 2765 2762 2760 2758 2756 2754 2753 2751 2749 2748 2747 2745 2743 2741 2739 2738 2738 2736 2735 2734
2993 2988 2983 2977 2972 2966 2961 2956 2950 2945 2939 2934 2929 2924 2920 2915 2910 2906 2901 2897 2894 2890 2887 2883 2879 2875 2871 2868 2864 2860 2857 2853 2850 2848 2844 2840 2837 2834 2831 2828 2825 2822 2819 2815 2812 2809 2806 2804 2801 2798 2795 2793 2790 2788 2785 2782 2781 2779 2777 2775 2772 2770 2768 2766 2764 2762 2759 2757 2755 2753 2751 2749 2747 2746 2744 2743 2741 2740 2738 2736 2734 2733 2733 2731 2730
2989 2984 2978 2973 2967 2961 2956 2951 2946 2940 2936 2931 2926 2921 2916 2912 2907 2903 2899 2895 2892 2888 2885 2881 2877 2874 2870 2866 2862 2859 2855 2851 2847 2844 2841 2838 2835 2832 2829 2826 2823 2820 2818 2814 2811 2808 2804 2802 2799 2796 2793 2790 2788 2785 2782 2779 2777 2775 2773 2770 2768 2766 2764 2762 2760 2758 2756 2754 2752 2750 2748 2746 2744 2742 2741 2740 2738 2736 2734 2733 2731 2729 2728 2728 2726
2984 2979 2973 2968 2962 2957 2952 2947 2942 2937 2932 2927 2923 2918 2914 2910 2905 2901 2897 2894 2890 2886 2883 2879 2876 2872 2869 2865 2861 2857 2854 2850 2846 2842 2839 2836 2833 2830 2827 2824 2821 2818 2816 2813 2810 2806 2803 2800 2797 2794 2791 2789 2786 2784 2781 2778 2775 2772 2769 2767 2764 2762 2760 2758 2756 2754 2752 2750 2749 2747 2745 2743 2741 2739 2738 2737 2735 2733 2731 2729 2728 2726 2725 2724 2723
2979 2974 2968 2963 2958 2953 2948 2943 2939 2934 2929 2924 2920 2916 2912 2908 2904 2899 2895 2892 2889 2885 2881 2878 2874 2871 2867 2863 2860 2856 2853 2849 2846 2842 2838 2835 2832 2828 2825 2822 2819 2816 2813 2810 2807 2804 2801 2798 2795 2792 2790 2787 2785 2782 2779 2777 2774 2771 2768 2765 2762 2759 2757 2755 2753 2752 2750 2748 2746 2744 2742 2740 2739 2737 2735 2734 2732 2730 2728 2726 2725 2723 2721 2720 2720
2975 2970 2965 2960 2955 2950 2945 2940 2935 2931 2926 2922 2918 2914 2910 2906 2902 2898 2894 2891 2887 2883 2880 2876 2873 2869 2866 2862 2859 2855 2852 2848 2845 2841 2838 2833 2830 2826 2823 2820 2816 2813 2810 2807 2805 2802 2799 2796 2793 2790 2788 2785 2783 2780 2777 2775 2772 2769 2766 2764 2761 2758 2755 2753 2751 2749 2747 2745 2744 2742 2740 2738 2736 2734 2733 2732 2730 2728 2726 2724 2722 2721 2719 2717 2716
2971 2966 2961 2956 2951 2946 2942 2937 2932 2928 2924 2920 2916 2912 2908 2904 2901 2897 2893 2889 2886 2882 2878 2875 2871 2868 2865 2861 2858 2854 2851 2847 2844 2840 2837 2833 2829 2825 2822 2818 2814 2811 2808 2805 2802 2799 2797 2794 2791 2789 2786 2783 2781 2778 2776 2773 2771 2768 2765 2762 2760 2757 2755 2752 2750 2747 2745 2743 2741 2740 2738 2736 2733 2732 2731 2729 2727 2726 2725 2723 2721 2719 2718 2716 2714
2967 2963 2958 2953 2948 2944 2939 2934 2930 2926 2922 2918 2914 2910 2906 2902 2899 2895 2892 2888 2885 2881 2877 2874 2870 2867 2863 2860 2856 2853 2849 2846 2843 2839 2835 2832 2828 2824 2821 2817 2813 2810 2807 2803 2800 2797 2794 2792 2789 2786 2784 2781 2779 2776 2774 2772 2769 2767 2764 2761 2758 2756 2754 2752 2749 2747 2744 2742 2740 2739 2737 2734 2732 2730 2729 2728 2726 2724 2723 2721 2720 2718 2716 2715 2713
2964 2960 2955 2950 2946 2941 2937 2932 2928 2924 2920 2916 2912 2909 2905 2901 2897 2894 2891 2887 2884 2880 2876 2873 2869 2866 2862 2858 2855 2851 2848 2845 2841 2838 2834 2831 2827 2824 2820 2816 2812 2809 2805 2802 2799 2796 2793 2790 2787 2784 2781 2779 2777 2774 2772 2770 2767 2765 2763 2760 2757 2755 2752 2750 2748 2746 2744 2741 2739 2737 2735 2733 2730 2729 2728 2726 2725 2723 2721 2720 2718 2717 2715 2713 2711
2961 2957 2952 2948 2944 2939 2935 2931 2927 2923 2919 2915 2911 2908 2904 2901 2897 2893 2890 2886 2882 2879 2875 2872 2868 2865 2861 2857 2854 2851 2847 2844 2840 2837 2834 2830 2826 2823 2819 2815 2811 2808 2804 2801 2797 2794 2791 2789 2786 2783 2780 2778 2775 2773 2771 2768 2766 2764 2761 2759 2757 2754 2751 2749 2747 2744 2742 2740 2738 2736 2734 2732 2730 2728 2726 2725 2724 2722 2721 2719 2717 2715 2714 2712 2710
2959 2955 2951 2946 2942 2938 2934 2930 2926 2922 2917 2914 2910 2907 2904 2900 2896 2892 2888 2885 2881 2878 2874 2871 2867 2864 2860 2857 2853 2850 2846 2843 2839 2836 2833 2829 2826 2822 2818 2815 2811 2807 2804 2800 2797 2794 2790 2788 2785 2782 2779 2777 2775 2772 2770 2768 2766 2763 2761 2758 2756 2754 2751 2749 2746 2744 2742 2740 2738 2736 2734 2732 2730 2728 2727 2725 2724 2722 2721 2719 2717 2715 2713 2711 2710
2957 2953 2949 2945 2941 2937 2933 2928 2924 2920 2916 2913 2909 2906 2902 2899 2895 2891 2887 2883 2880 2877 2874 2870 2867 2863 2860 2856 2853 2849 2846 2842 2839 2836 2832 2829 2825 2822 2818 2815 2811 2808 2804 2800 2797 2793 2790 2787 2784 2782 2779 2777 2774 2772 2770 2768 2765 2763 2761 2758 2756 2754 2751 2749 2747 2745 2742 2740 2738 2736 2734 2732 2731 2729 2728 2726 2724 2722 2721 2719 2717 2715 2713 2711 2709
2956 2952 2948 2944 2940 2935 2931 2927 2923 2919 2916 2912 2909 2905 2901 2898 2894 2890 2886 2882 2879 2876 2873 2870 2866 2863 2860 2857 2853 2849 2846 2843 2839 2836 2832 2829 2825 2822 2818 2815 2812 2808 2804 2801 2797 2794 2790 2787 2784 2782 2779 2776 2774 2772 2770 2768 2766 2763 2761 2759 2756 2754 2752 2750 2748 2745 2743 2741 2739 2737 2735 2733 2732 2730 2728 2726 2724 2722 2720 2718 2716 2714 2712 2710 2708
2954 2951 2947 2942 2938 2934 2929 2926 2922 2919 2915 2912 2908 2904 2900 2897 2893 2889 2886 2882 2879 2876 2873 2870 2867 2864 2860 2857 2854 2850 2847 2843 2840 2836 2833 2829 2825 2822 2818 2815 2811 2808 2804 2801 2798 2794 2791 2788 2785 2782 2780 2777 2775 2773 2770 2768 2766 2764 2762 2759 2757 2755 2753 2750 2748 2746 2744 2742 2740 2738 2736 2734 2732 2730 2728 2726 2724 2722 2720 2718 2716 2714 2712 2710 2708
2953 2949 2946 2942 2937 2933 2929 2925 2922 2918 2915 2911 2908 2904 2900 2896 2892 2889 2886 2883 2879 2876 2873 2870 2867 2864 2861 2858 2854 2851 2848 2844 2840 2837 2833 2830 2826 2823 2819 2815 2811 2808 2804 2801 2798 2795 2792 2789 2786 2784 2781 2779 2776 2774 2772 2769 2767 2765 2763 2760 2758 2755 2753 2751 2749 2746 2744 2742 2740 2738 2736 2734 2732 2730 2728 2726 2724 2722 2720 2718 2716 2714 2712 2711 2709
2952 2948 2945 2941 2936 2932 2929 2925 2922 2918 2914 2911 2907 2903 2900 2896 2893 2889 2886 2884 2881 2878 2875 2872 2869 2866 2862 2859 2856 2852 2849 2845 2842 2838 2834 2831 2827 2824 2820 2816 2812 2809 2806 2802 2799 2797 2794 2791 2788 2786 2783 2781 2778 2776 2773 2771 2769 2766 2764 2762 2759 2757 2754 2752 2750 2748 2746 2744 2742 2740 2738 2736 2734 2731 2729 2727 2725 2723 2721 2719 2717 2715 2713 2711 2709
2951 2948 2944 2940 2937 2933 2929 2926 2922 2918 2914 2910 2907 2903 2900 2897 2894 2891 2888 2885 2882 2880 2877 2874 2871 2868 2864 2861 2858 2854 2850 2847 2843 2840 2836 2833 2829 2825 2822 2818 2814 2811 2808 2805 2802 2799 2796 2794 2791 2788 2786 2783 2781 2778 2776 2773 2771 2768 2766 2763 2761 2758 2756 2754 2752 2750 2748 2746 2744 2742 2740 2738 2735 2733 2731 2729 2727 2725 2723 2720 2718 2716 2714 2712 2710
2950 2947 2943 2940 2937 2934 2929 2926 2922 2918 2914 2910 2907 2904 2901 2898 2895 2892 2890 2887 2884 2881 2879 2876 2873 2870 2866 2863 2859 2856 2852 2849 2846 2842 2839 2835 2831 2828 2824 2820 2817 2814 2811 2808 2805 2802 2799 2796 2793 2791 2788 2786 2783 2781 2778 2776 2773 2771 2768 2766 2763 2761 2759 2756 2754 2752 2750 2748 2746 2744 2742 2739 2737 2735 2732 2730 2728 2725 2724 2722 2720 2718 2715 2713 2711
2950 2946 2943 2941 2938 2934 2930 2926 2923 2919 2915 2911 2908 2905 2902 2900 2897 2894 2891 2888 2886 2883 2880 2877 2874 2871 2868 2865 2862 2858 2855 2852 2848 2845 2841 2837 2834 2830 2827 2823 2820 2817 2814 2811 2807 2804 2801 2799 2796 2794 2791 2789 2786 2784 2781 2779 2776 2773 2771 2768 2766 2764 2762 2759 2757 2755 2752 2750 2748 2746 2743 2741 2739 2736 2734 2731 2729 2727 2725 2723 2721 2719 2716 2714 2712
2950 2947 2944 2941 2937 2934 2930 2926 2923 2919 2916 2913 2910 2907 2904 2901 2898 2896 2893 2890 2888 2885 2882 2879 2876 2873 2870 2867 2864 2861 2857 2854 2851 2848 2844 2840 2836 2833 2830 2826 2823 2820 2817 2813 2810 2807 2804 2802 2800 2797 2795 2792 2790 2787 2784 2781 2779 2776 2774 2772 2769 2767 2764 2762 2760 2757 2755 2752 2750 2748 2745 2743 2741 2738 2736 2733 2731 2729 2727 2725 2723 2720 2718 2716 2714
2950 2948 2944 2941 2938 2935 2932 2928 2923 2920 2917 2915 2912 2909 2906 2903 2900 2897 2895 2892 2890 2887 2884 2881 2878 2875 2872 2869 2866 2863 2860 2857 2854 2851 2847 2843 2839 2836 2833 2830 2826 2823 2820 2816 2812 2809 2807 2805 2803 2800 2798 2795 2793 2790 2787 2785 2782 2780 2777 2775 2772 2769 2767 2764 2762 2759 2757 2754 2752 2750 2747 2745 2743 2740 2738 2736 2734 2732 2730 2728 2725 2723 2720 2718 2716
2951 2948 2945 2941 2938 2935 2932 2929 2925 2922 2919 2916 2913 2911 2908 2905 2902 2900 2897 2894 2891 2889 2886 2883 2880 2877 2874 2871 2868 2866 2863 2859 2856 2853 2849 2845 2842 2839 2836 2833 2830 2826 2822 2818 2815 2813 2811 2808 2806 2804 2801 2799 2796 2794 2791 2788 2786 2783 2780 2777 2775 2772 2769 2767 2764 2762 2760 2757 2755 2752 2750 2747 2745 2743 2741 2739 2737 2734 2732 2730 2727 2724 2722 2720 2718
2952 2948 2945 2942 2939 2935 2932 2930 2927 2924 2921 2918 2915 2913 2910 2907 2904 2901 2899 2896 2893 2890 2887 2885 2882 2879 2876 2873 2871 2867 2864 2861 2857 2854 2851 2848 2845 2842 2839 2836 2832 2829 2825 2822 2820 2818 2816 2814 2812 2809 2806 2803 2801 2798 2795 2792 2789 2786 2784 2781 2778 2775 2773 2770 2768 2765 2763 2760 2758 2755 2753 2750 2748 2746 2743 2741 2739 2737 2734 2732 2729 2727 2725 2723 2720
2952 2948 2945 2943 2940 2936 2933 2930 2928 2926 2923 2920 2917 2914 2911 2908 2905 2903 2900 2897 2895 2892 2889 2886 2883 2880 2877 2875 2872 2869 2866 2863 2860 2857 2854 2851 2849 2845 2842 2838 2835 2832 2829 2827 2825 2823 2821 2819 2816 2813 2810 2808 2805 2802 2799 2796 2793 2790 2787 2785 2782 2779 2776 2774 2771 2768 2766 2763 2761 2758 2756 2753 2751 2749 2746 2744 2741 2739 2737 2734 2732 2730 2728 2725 2723
2952 2949 2947 2944 2940 2937 2934 2932 2929 2926 2924 2922 2919 2915 2912 2910 2907 2905 2902 2900 2897 2894 2891 2888 2885 2883 2880 2877 2874 2871 2869 2866 2864 2861 2858 2855 2852 2849 2845 2842 2839 2836 2834 2832 2830 2828 2825 2822 2820 2817 2814 2811 2808 2805 2802 2799 2796 2793 2791 2788 2785 2782 2780 2777 2774 2771 2769 2766 2763 2761 2759 2756 2754 2752 2749 2747 2744 2742 2740 2737 2735 2733 2730 2728 2726
2954 2951 2948 2945 2942 2939 2936 2933 2930 2928 2925 2923 2921 2918 2915 2912 2910 2907 2905 2903 2900 2897 2894 2891 2889 2886 2883 2881 2878 2875 2873 2870 2868 2865 2862 2859 2856 2853 2849 2846 2843 2841 2838 2836 2834 2831 2829 2826 2823 2820 2817 2814 2811 2808 2805 2802 2800 2797 2794 2791 2788 2785 2782 2780 2777 2775 2772 2769 2767 2765 2762 2760 2757 2755 2753 2750 2748 2746 2743 2741 2738 2736 2734 2731 2729
2955 2952 2949 2946 2943 2940 2938 2935 2933 2930 2928 2925 2922 2920 2918 2916 2913 2911 2908 2906 2903 2900 2897 2895 2892 2889 2887 2884 2881 2878 2876 2873 2871 2868 2865 2862 2859 2856 2853 2850 2847 2845 2843 2840 2838 2835 2832 2829 2826 2823 2820 2817 2814 2812 2809 2806 2803 2800 2798 2795 2792 2789 2786 2783 2781 2778 2776 2773 2771 2768 2766 2763 2761 2759 2756 2754 2751 2749 2747 2744 2742 2740 2737 2735 2733
2956 2954 2951 2948 2945 2943 2940 2938 2936 2933 2931 2928 2926 2923 2921 2918 2916 2913 2911 2908 2906 2903 2900 2898 2895 2893 2890 2887 2885 2882 2879 2877 2874 2871 2868 2865 2862 2859 2856 2853 2852 2850 2847 2844 2842 2839 2836 2833 2830 2827 2824 2821 2818 2815 2812 2810 2807 2804 2801 2798 2796 2793 2790 2788 2785 2782 2780 2777 2775 2772 2769 2767 2765 2762 2760 2757 2755 2753 2750 2748 2746 2743 2741 2739 2736
2958 2955 2953 2950 2947 2945 2943 2941 2939 2937 2934 2931 2929 2927 2924 2922 2919 2917 2914 2912 2909 2907 2904 2902 2899 2896 2893 2891 2888 2885 2882 2880 2877 2874 2871 2868 2865 2862 2860 2858 2856 2854 2851 2848 2845 2842 2839 2836 2833 2830 2827 2825 2822 2819 2816 2814 2811 2808 2806 2803 2800 2798 2795 2792 2789 2786 2784 2781 2778 2776 2773 2771 2768 2766 2763 2761 2758 2756 2754 2751 2749 2747 2744 2742 2740
2960 2957 2955 2952 2950 2948 2946 2944 2942 2940 2937 2934 2932 2930 2927 2925 2923 2920 2918 2915 2912 2909 2907 2904 2901 2899 2896 2893 2891 2888 2885 2883 2880 2877 2875 2872 2870 2867 2865 2863 2860 2857 2854 2851 2848 2845 2842 2839 2836 2834 2831 2828 2826 2823 2820 2818 2815 2812 2810 2807 2804 2801 2799 2796 2793 2790 2787 2784 2782 2779 2777 2774 2772 2769 2767 2764 2762 2759 2757 2754 2752 2750 2747 2745 2743
2962 2959 2957 2955 2953 2951 2949 2947 2945 2942 2940 2937 2935 2932 2930 2928 2925 2922 2919 2917 2914 2911 2908 2906 2903 2901 2898 2896 2893 2891 2888 2886 2883 2881 2879 2876 2874 2871 2868 2865 2863 2860 2857 2854 2851 2849 2846 2843 2840 2838 2835 2832 2830 2827 2824 2821 2819 2816 2813 2810 2807 2804 2802 2799 2796 2793 2791 2788 2785 2783 2780 2778 2775 2773 2770 2768 2765 2762 2760 2758 2755 2753 2751 2749 2746
2964 2962 2959 2957 2956 2954 2952 2950 2947 2945 2942 2939 2937 2935 2932 2930 2928 2925 2922 2919 2917 2914 2911 2909 2906 2904 2902 2899 2896 2894 2891 2889 2886 2884 2882 2879 2877 2874 2871 2868 2865 2863 2860 2857 2855 2852 2849 2847 2844 2841 2839 2836 2833 2831 2828 2825 2822 2819 2817 2814 2811 2808 2805 2803 2800 2797 2794 2791 2789 2786 2783 2781 2778 2776 2773 2771 2768 2766 2763 2761 2759 2756 2754 2752 2749
2966 2964 2962 2960 2958 2956 2954 2952 2949 2947 2944 2942 2939 2937 2935 2933 2930 2928 2925 2923 2920 2918 2915 2913 2910 2908 2905 2903 2900 2898 2895 2893 2890 2888 2885 2882 2879 2877 2874 2871 2869 2866 2863 2861 2858 2856 2853 2850 2847 2845 2842 2840 2837 2834 2831 2828 2826 2823 2820 2817 2814 2811 2809 2806 2803 2801 2798 2795 2792 2789 2787 2784 2781 2779 2776 2774 2771 2769 2766 2764 2762 2759 2757 2755 2752
2968 2966 2964 2962 2960 2958 2956 2954 2951 2949 2946 2944 2942 2940 2938 2936 2933 2931 2929 2926 2924 2921 2919 2917 2914 2912 2909 2906 2904 2901 2899 2896 2893 2891 2888 2885 2883 2880 2877 2875 2872 2869 2867 2864 2862 2859 2856 2854 2851 2848 2845 2843 2840 2837 2835 2832 2829 2826 2823 2820 2817 2814 2812 2809 2806 2804 2801 2798 2795 2793 2790 2788 2785 2782 2780 2777 2775 2772 2770 2767 2765 2762 2760 2758 2756
2969 2967 2966 2964 2962 2960 2958 2956 2954 2951 2949 2947 2945 2943 2941 2939 2937 2934 2932 2930 2927 2925 2922 2920 2918 2915 2912 2910 2907 2905 2902 2899 2896 2894 2891 2889 2886 2884 2881 2878 2876 2873 2871 2868 2865 2863 2860 2857 2854 2852 2849 2846 2843 2840 2838 2835 2832 2829 2826 2823 2820 2817 2815 2812 2809 2807 2804 2801 2799 2796 2794 2791 2788 2786 2783 2781 2778 2776 2773 2771 2768 2766 2763 2761 2759
2970 2969 2968 2966 2964 2962 2960 2958 2956 2953 2951 2949 2947 2945 2943 2941 2939 2937 2935 2932 2930 2928 2925 2923 2920 2918 2915 2913 2910 2907 2905 2902 2899 2897 2894 2892 2889 2887 2884 2882 2879 2876 2874 2871 2869 2866 2863 2861 2858 2855 2852 2849 2846 2843 2841 2838 2835 2832 2829 2826 2823 2820 2818 2815 2812 2809 2807 2804 2801 2799 2796 2794 2791 2789 2786 2784 2781 2779 2776 2774 2771 2769 2767 2764 2762
2972 2971 2969 2968 2966 2964 2962 2960 2958 2956 2954 2952 2950 2948 2946 2944 2942 2939 2937 2935 2932 2930 2928 2925 2923 2920 2918 2915 2913 2910 2907 2905 2902 2900 2897 2895 2892 2890 2887 2884 2882 2879 2877 2874 2871 2869 2866 2863 2860 2857 2855 2852 2849 2846 2843 2840 2837 2835 2832 2829 2826 2823 2820 2818 2815 2812 2809 2806 2804 2801 2799 2797 2794 2791 2789 2786 2784 2781 2779 2776 2774 2771 2769 2767 2764
2974 2972 2971 2969 2967 2966 2964 2962 2960 2958 2956 2954 2952 2950 2948 2946 2944 2942 2939 2937 2935 2932 2930 2928 2925 2923 2920 2918 2915 2912 2910 2907 2905 2902 2900 2897 2894 2892 2889 2887 2884 2881 2879 2876 2873 2870 2868 2865 2862 2859 2856 2854 2851 2848 2845 2843 2840 2837 2834 2831 2829 2826 2823 2820 2818 2815 2812 2809 2807 2804 2801 2799 2796 2794 2791 2789 2786 2783 2781 2779 2776 2774 2771 2769 2766
2975 2974 2972 2971 2969 2967 2965 2963 2962 2960 2958 2956 2954 2952 2950 2948 2946 2944 2942 2939 2937 2935 2932 2930 2928 2925 2922 2920 2917 2915 2912 2910 2907 2904 2902 2899 2897 2894 2891 2889 2886 2883 2880 2878 2875 2872 2870 2867 2864 2861 2858 2855 2853 2850 2847 2844 2842 2839 2836 2833 2831 2828 2825 2822 2820 2817 2814 2811 2809 2806 2803 2801 2798 2795 2793 2790 2787 2785 2783 2780 2778 2776 2773 2771 2768
2976 2975 2973 2972 2970 2968 2967 2965 2963 2961 2959 2957 2956 2954 2952 2950 2948 2946 2943 2941 2939 2937 2934 2932 2930 2927 2924 2922 2919 2917 2914 2911 2909 2906 2904 2901 2898 2896 2893 2890 2888 2885 2882 2880 2877 2874 2871 2869 2866 2863 2860 2857 2855 2852 2849 2846 2843 2841 2838 2835 2832 2829 2827 2824 2821 2818 2816 2813 2810 2808 2805 2802 2799 2796 2794 2791 2788 2786 2783 2781 2779 2777 2774 2772 2770
2977 2976 2974 2973 2971 2969 2968 2966 2964 2963 2961 2959 2957 2955 2953 2951 2949 2947 2945 2943 2941 2938 2936 2933 2931 2928 2926 2923 2921 2918 2916 2913 2910 2908 2905 2903 2900 2897 2894 2892 2889 2886 2884 2881 2878 2875 2873 2870 2867 2865 2862 2859 2856 2853 2850 2848 2845 2842 2839 2836 2834 2831 2828 2825 2822 2819 2817 2814 2811 2808 2806 2803 2800 2797 2794 2792 2789 2787 2784 2782 2779 2777 2775 2773 2771
2977 2976 2975 2974 2972 2970 2969 2967 2965 2964 2962 2960 2958 2956 2954 2952 2950 2948 2946 2944 2942 2939 2937 2935 2932 2930 2927 2925 2922 2919 2917 2914 2912 2909 2906 2904 2901 2898 2896 2893 2890 2887 2885 2882 2879 2876 2874 2871 2868 2865 2863 2860 2857 2854 2851 2849 2846 2843 2840 2837 2834 2831 2828 2826 2823 2820 2817 2814 2811 2809 2806 2803 2800 2798 2795 2792 2790 2787 2785 2782 2780 2778 2775 2773 2771
2978 2977 2976 2974 2973 2971 2969 2968 2966 2964 2963 2961 2959 2957 2955 2953 2951 2949 2947 2945 2943 2940 2938 2935 2933 2930 2928 2925 2923 2920 2917 2915 2912 2910 2907 2904 2902 2899 2896 2894 2891 2888 2885 2882 2880 2877 2874 2871 2868 2866 2863 2860 2857 2855 2852 2849 2846 2843 2840 2837 2834 2831 2829 2826 2823 2820 2817 2815 2812 2809 2806 2803 2801 2798 2795 2792 2790 2787 2785 2782 2780 2778 2776 2774 2771
2979 2978 2976 2975 2973 2972 2970 2968 2967 2965 2963 2961 2960 2958 2956 2954 2952 2950 2948 2946 2943 2941 2939 2936 2934 2931 2928 2926 2923 2921 2918 2915 2913 2910 2907 2905 2902 2899 2897 2894 2891 2888 2885 2882 2880 2877 2874 2871 2868 2866 2863 2860 2857 2854 2852 2849 2846 2843 2840 2838 2835 2832 2829 2826 2823 2820 2817 2815 2812 2809 2806 2803 2800 2798 2795 2792 2790 2787 2785 2783 2780 2778 2776 2774 2772
2979 2978 2976 2975 2973 2972 2970 2968 2967 2965 2964 2962 2960 2958 2956 2955 2953 2951 2948 2946 2944 2942 2939 2937 2934 2932 2929 2927 2924 2921 2919 2916 2913 2911 2908 2905 2902 2899 2897 2894 2891 2888 2885 2882 2879 2877 2874 2871 2868 2866 2863 2860 2857 2854 2851 2848 2845 2843 2840 2837 2834 2832 2829 2826 2823 2820 2817 2814 2811 2809 2806 2803 2800 2797 2795 2792 2790 2787 2785 2782 2780 2778 2776 2773 2771